Year,Month,Day,Hour,Minute,Value (Times are PST for temperature in C)
2015,12,08,00,00,9.00
2015,12,08,00,01,9.00
2015,12,08,00,02,9.00
2015,12,08,00,03,9.00
2015,12,08,00,04,9.00
2015,12,08,00,05,9.00
2015,12,08,00,06,9.00
2015,12,08,00,07,9.00
2015,12,08,00,08,9.00
2015,12,08,00,09,9.00
2015,12,08,00,10,9.00
2015,12,08,00,11,9.00
2015,12,08,00,12,9.10
2015,12,08,00,13,9.10
2015,12,08,00,14,9.10
2015,12,08,00,15,9.10
2015,12,08,00,16,9.10
2015,12,08,00,17,9.10
2015,12,08,00,18,9.10
2015,12,08,00,19,9.10
2015,12,08,00,20,9.10
2015,12,08,00,21,9.10
2015,12,08,00,22,9.10
2015,12,08,00,23,9.10
2015,12,08,00,24,9.10
2015,12,08,00,25,9.10
2015,12,08,00,26,9.10
2015,12,08,00,27,9.10
2015,12,08,00,28,9.20
2015,12,08,00,29,9.20
2015,12,08,00,30,9.20
2015,12,08,00,31,9.20
2015,12,08,00,32,9.20
2015,12,08,00,33,9.20
2015,12,08,00,34,9.20
2015,12,08,00,35,9.20
2015,12,08,00,36,9.20
2015,12,08,00,37,9.20
2015,12,08,00,38,9.20
2015,12,08,00,39,9.20
2015,12,08,00,40,9.20
2015,12,08,00,41,9.20
2015,12,08,00,42,9.10
2015,12,08,00,43,9.10
2015,12,08,00,44,9.10
2015,12,08,00,45,9.10
2015,12,08,00,46,9.10
2015,12,08,00,47,9.10
2015,12,08,00,48,9.10
2015,12,08,00,49,9.10
2015,12,08,00,50,9.00
2015,12,08,00,51,9.00
2015,12,08,00,52,9.00
2015,12,08,00,53,9.00
2015,12,08,00,54,9.00
2015,12,08,00,55,8.90
2015,12,08,00,56,8.90
2015,12,08,00,57,8.90
2015,12,08,00,58,8.90
2015,12,08,00,59,8.90
2015,12,08,01,00,8.90
2015,12,08,01,01,8.80
2015,12,08,01,02,8.80
2015,12,08,01,03,8.80
2015,12,08,01,04,8.80
2015,12,08,01,05,8.80
2015,12,08,01,06,8.80
2015,12,08,01,07,8.80
2015,12,08,01,08,8.80
2015,12,08,01,09,8.80
2015,12,08,01,10,8.80
2015,12,08,01,11,8.80
2015,12,08,01,12,8.80
2015,12,08,01,13,8.80
2015,12,08,01,14,8.80
2015,12,08,01,15,8.80
2015,12,08,01,16,8.80
2015,12,08,01,17,8.80
2015,12,08,01,18,8.80
2015,12,08,01,19,8.80
2015,12,08,01,20,8.80
2015,12,08,01,21,8.80
2015,12,08,01,22,8.90
2015,12,08,01,23,8.90
2015,12,08,01,24,8.90
2015,12,08,01,25,8.90
2015,12,08,01,26,8.90
2015,12,08,01,27,8.90
2015,12,08,01,28,8.90
2015,12,08,01,29,8.90
2015,12,08,01,30,9.00
2015,12,08,01,31,9.00
2015,12,08,01,32,9.00
2015,12,08,01,33,9.00
2015,12,08,01,34,9.00
2015,12,08,01,35,8.90
2015,12,08,01,36,8.90
2015,12,08,01,37,8.90
2015,12,08,01,38,8.90
2015,12,08,01,39,8.90
2015,12,08,01,40,8.90
2015,12,08,01,41,8.90
2015,12,08,01,42,8.90
2015,12,08,01,43,8.90
2015,12,08,01,44,8.90
2015,12,08,01,45,8.90
2015,12,08,01,46,8.90
2015,12,08,01,47,8.90
2015,12,08,01,48,8.90
2015,12,08,01,49,8.90
2015,12,08,01,50,8.90
2015,12,08,01,51,8.90
2015,12,08,01,52,8.90
2015,12,08,01,53,8.90
2015,12,08,01,54,8.90
2015,12,08,01,55,8.90
2015,12,08,01,56,8.90
2015,12,08,01,57,8.90
2015,12,08,01,58,8.90
2015,12,08,01,59,8.90
2015,12,08,02,00,8.90
2015,12,08,02,01,8.90
2015,12,08,02,02,8.90
2015,12,08,02,03,8.90
2015,12,08,02,04,8.90
2015,12,08,02,05,8.80
2015,12,08,02,06,8.80
2015,12,08,02,07,8.80
2015,12,08,02,08,8.80
2015,12,08,02,09,8.80
2015,12,08,02,10,8.80
2015,12,08,02,11,8.80
2015,12,08,02,12,8.80
2015,12,08,02,13,8.80
2015,12,08,02,14,8.80
2015,12,08,02,15,8.80
2015,12,08,02,16,8.80
2015,12,08,02,17,8.80
2015,12,08,02,18,8.80
2015,12,08,02,19,8.80
2015,12,08,02,20,8.80
2015,12,08,02,21,8.80
2015,12,08,02,22,8.80
2015,12,08,02,23,8.80
2015,12,08,02,24,8.80
2015,12,08,02,25,8.80
2015,12,08,02,26,8.70
2015,12,08,02,27,8.80
2015,12,08,02,28,8.80
2015,12,08,02,29,8.80
2015,12,08,02,30,8.80
2015,12,08,02,31,8.70
2015,12,08,02,32,8.70
2015,12,08,02,33,8.70
2015,12,08,02,34,8.70
2015,12,08,02,35,8.70
2015,12,08,02,36,8.70
2015,12,08,02,37,8.80
2015,12,08,02,38,8.70
2015,12,08,02,39,8.80
2015,12,08,02,40,8.80
2015,12,08,02,41,8.80
2015,12,08,02,42,8.80
2015,12,08,02,43,8.80
2015,12,08,02,44,8.80
2015,12,08,02,45,8.80
2015,12,08,02,46,8.80
2015,12,08,02,47,8.80
2015,12,08,02,48,8.80
2015,12,08,02,49,8.80
2015,12,08,02,50,8.80
2015,12,08,02,51,8.80
2015,12,08,02,52,8.80
2015,12,08,02,53,8.80
2015,12,08,02,54,8.80
2015,12,08,02,55,8.80
2015,12,08,02,56,8.80
2015,12,08,02,57,8.80
2015,12,08,02,58,8.80
2015,12,08,02,59,8.80
2015,12,08,03,00,8.80
2015,12,08,03,01,8.80
2015,12,08,03,02,8.80
2015,12,08,03,03,8.80
2015,12,08,03,04,8.80
2015,12,08,03,05,8.80
2015,12,08,03,06,8.80
2015,12,08,03,07,8.80
2015,12,08,03,08,8.80
2015,12,08,03,09,8.80
2015,12,08,03,10,8.80
2015,12,08,03,11,8.80
2015,12,08,03,12,8.80
2015,12,08,03,13,8.80
2015,12,08,03,14,8.80
2015,12,08,03,15,8.80
2015,12,08,03,16,8.80
2015,12,08,03,17,8.90
2015,12,08,03,18,8.90
2015,12,08,03,19,8.90
2015,12,08,03,20,8.90
2015,12,08,03,21,8.90
2015,12,08,03,22,8.90
2015,12,08,03,23,8.90
2015,12,08,03,24,8.90
2015,12,08,03,25,8.90
2015,12,08,03,26,8.90
2015,12,08,03,27,8.90
2015,12,08,03,28,8.90
2015,12,08,03,29,8.90
2015,12,08,03,30,8.90
2015,12,08,03,31,8.90
2015,12,08,03,32,8.90
2015,12,08,03,33,8.90
2015,12,08,03,34,8.90
2015,12,08,03,35,8.90
2015,12,08,03,36,8.90
2015,12,08,03,37,8.90
2015,12,08,03,38,8.90
2015,12,08,03,39,8.90
2015,12,08,03,40,8.90
2015,12,08,03,41,8.90
2015,12,08,03,42,8.90
2015,12,08,03,43,8.90
2015,12,08,03,44,8.90
2015,12,08,03,45,8.90
2015,12,08,03,46,8.90
2015,12,08,03,47,8.90
2015,12,08,03,48,8.90
2015,12,08,03,49,8.90
2015,12,08,03,50,8.90
2015,12,08,03,51,8.90
2015,12,08,03,52,8.90
2015,12,08,03,53,8.90
2015,12,08,03,54,8.90
2015,12,08,03,55,8.90
2015,12,08,03,56,8.90
2015,12,08,03,57,8.90
2015,12,08,03,58,8.90
2015,12,08,03,59,8.90
2015,12,08,04,00,8.90
2015,12,08,04,01,8.90
2015,12,08,04,02,8.90
2015,12,08,04,03,8.90
2015,12,08,04,04,8.90
2015,12,08,04,05,8.90
2015,12,08,04,06,8.90
2015,12,08,04,07,8.90
2015,12,08,04,08,8.90
2015,12,08,04,09,8.90
2015,12,08,04,10,8.90
2015,12,08,04,11,8.90
2015,12,08,04,12,8.90
2015,12,08,04,13,8.90
2015,12,08,04,14,8.90
2015,12,08,04,15,8.90
2015,12,08,04,16,8.90
2015,12,08,04,17,8.90
2015,12,08,04,18,8.90
2015,12,08,04,19,9.00
2015,12,08,04,20,9.00
2015,12,08,04,21,9.00
2015,12,08,04,22,9.00
2015,12,08,04,23,9.00
2015,12,08,04,24,9.00
2015,12,08,04,25,9.00
2015,12,08,04,26,9.00
2015,12,08,04,27,9.00
2015,12,08,04,28,9.00
2015,12,08,04,29,9.10
2015,12,08,04,30,9.10
2015,12,08,04,31,9.10
2015,12,08,04,32,9.10
2015,12,08,04,33,9.10
2015,12,08,04,34,9.10
2015,12,08,04,35,9.10
2015,12,08,04,36,9.10
2015,12,08,04,37,9.10
2015,12,08,04,38,9.10
2015,12,08,04,39,9.10
2015,12,08,04,40,9.10
2015,12,08,04,41,9.10
2015,12,08,04,42,9.10
2015,12,08,04,43,9.10
2015,12,08,04,44,9.10
2015,12,08,04,45,9.10
2015,12,08,04,46,9.10
2015,12,08,04,47,9.10
2015,12,08,04,48,9.20
2015,12,08,04,49,9.20
2015,12,08,04,50,9.20
2015,12,08,04,51,9.20
2015,12,08,04,52,9.20
2015,12,08,04,53,9.20
2015,12,08,04,54,9.20
2015,12,08,04,55,9.20
2015,12,08,04,56,9.20
2015,12,08,04,57,9.20
2015,12,08,04,58,9.20
2015,12,08,04,59,9.20
2015,12,08,05,00,9.20
2015,12,08,05,01,9.20
2015,12,08,05,02,9.20
2015,12,08,05,03,9.20
2015,12,08,05,04,9.20
2015,12,08,05,05,9.20
2015,12,08,05,06,9.20
2015,12,08,05,07,9.20
2015,12,08,05,08,9.30
2015,12,08,05,09,9.30
2015,12,08,05,10,9.30
2015,12,08,05,11,9.30
2015,12,08,05,12,9.30
2015,12,08,05,13,9.30
2015,12,08,05,14,9.30
2015,12,08,05,15,9.30
2015,12,08,05,16,9.30
2015,12,08,05,17,9.30
2015,12,08,05,18,9.30
2015,12,08,05,19,9.30
2015,12,08,05,20,9.30
2015,12,08,05,21,9.30
2015,12,08,05,22,9.30
2015,12,08,05,23,9.30
2015,12,08,05,24,9.30
2015,12,08,05,25,9.30
2015,12,08,05,26,9.30
2015,12,08,05,27,9.30
2015,12,08,05,28,9.30
2015,12,08,05,29,9.30
2015,12,08,05,30,9.30
2015,12,08,05,31,9.30
2015,12,08,05,32,9.30
2015,12,08,05,33,9.30
2015,12,08,05,34,9.30
2015,12,08,05,35,9.30
2015,12,08,05,36,9.30
2015,12,08,05,37,9.30
2015,12,08,05,38,9.30
2015,12,08,05,39,9.30
2015,12,08,05,40,9.30
2015,12,08,05,41,9.30
2015,12,08,05,42,9.40
2015,12,08,05,43,9.40
2015,12,08,05,44,9.40
2015,12,08,05,45,9.40
2015,12,08,05,46,9.40
2015,12,08,05,47,9.40
2015,12,08,05,48,9.40
2015,12,08,05,49,9.40
2015,12,08,05,50,9.40
2015,12,08,05,51,9.40
2015,12,08,05,52,9.40
2015,12,08,05,53,9.40
2015,12,08,05,54,9.40
2015,12,08,05,55,9.40
2015,12,08,05,56,9.40
2015,12,08,05,57,9.40
2015,12,08,05,58,9.40
2015,12,08,05,59,9.40
2015,12,08,06,00,9.40
2015,12,08,06,01,9.40
2015,12,08,06,02,9.40
2015,12,08,06,03,9.40
2015,12,08,06,04,9.40
2015,12,08,06,05,9.40
2015,12,08,06,06,9.40
2015,12,08,06,07,9.50
2015,12,08,06,08,9.50
2015,12,08,06,09,9.50
2015,12,08,06,10,9.50
2015,12,08,06,11,9.50
2015,12,08,06,12,9.60
2015,12,08,06,13,9.60
2015,12,08,06,14,9.60
2015,12,08,06,15,9.60
2015,12,08,06,16,9.60
2015,12,08,06,17,9.60
2015,12,08,06,18,9.60
2015,12,08,06,19,9.70
2015,12,08,06,20,9.70
2015,12,08,06,21,9.70
2015,12,08,06,22,9.70
2015,12,08,06,23,9.70
2015,12,08,06,24,9.70
2015,12,08,06,25,9.70
2015,12,08,06,26,9.70
2015,12,08,06,27,9.70
2015,12,08,06,28,9.70
2015,12,08,06,29,9.70
2015,12,08,06,30,9.70
2015,12,08,06,31,9.70
2015,12,08,06,32,9.70
2015,12,08,06,33,9.80
2015,12,08,06,34,9.80
2015,12,08,06,35,9.80
2015,12,08,06,36,9.80
2015,12,08,06,37,9.80
2015,12,08,06,38,9.80
2015,12,08,06,39,9.80
2015,12,08,06,40,9.80
2015,12,08,06,41,9.80
2015,12,08,06,42,9.80
2015,12,08,06,43,9.80
2015,12,08,06,44,9.80
2015,12,08,06,45,9.80
2015,12,08,06,46,9.80
2015,12,08,06,47,9.90
2015,12,08,06,48,9.90
2015,12,08,06,49,9.90
2015,12,08,06,50,9.90
2015,12,08,06,51,9.90
2015,12,08,06,52,9.90
2015,12,08,06,53,9.90
2015,12,08,06,54,9.90
2015,12,08,06,55,9.90
2015,12,08,06,56,9.90
2015,12,08,06,57,9.90
2015,12,08,06,58,9.90
2015,12,08,06,59,9.90
2015,12,08,07,00,9.90
2015,12,08,07,01,9.90
2015,12,08,07,02,9.90
2015,12,08,07,03,9.90
2015,12,08,07,04,9.90
2015,12,08,07,05,9.90
2015,12,08,07,06,9.90
2015,12,08,07,07,9.90
2015,12,08,07,08,9.90
2015,12,08,07,09,9.90
2015,12,08,07,10,9.90
2015,12,08,07,11,9.90
2015,12,08,07,12,9.90
2015,12,08,07,13,9.90
2015,12,08,07,14,9.90
2015,12,08,07,15,9.90
2015,12,08,07,16,9.90
2015,12,08,07,17,9.90
2015,12,08,07,18,9.90
2015,12,08,07,19,9.90
2015,12,08,07,20,9.90
2015,12,08,07,21,9.90
2015,12,08,07,22,9.90
2015,12,08,07,23,9.90
2015,12,08,07,24,9.90
2015,12,08,07,25,9.90
2015,12,08,07,26,9.90
2015,12,08,07,27,9.90
2015,12,08,07,28,9.90
2015,12,08,07,29,9.90
2015,12,08,07,30,9.90
2015,12,08,07,31,10.00
2015,12,08,07,32,10.00
2015,12,08,07,33,10.00
2015,12,08,07,34,10.00
2015,12,08,07,35,10.00
2015,12,08,07,36,10.00
2015,12,08,07,37,10.00
2015,12,08,07,38,10.00
2015,12,08,07,39,10.00
2015,12,08,07,40,10.00
2015,12,08,07,41,10.00
2015,12,08,07,42,10.00
2015,12,08,07,43,10.00
2015,12,08,07,44,10.00
2015,12,08,07,45,10.00
2015,12,08,07,46,10.00
2015,12,08,07,47,10.00
2015,12,08,07,48,10.00
2015,12,08,07,49,10.00
2015,12,08,07,50,10.00
2015,12,08,07,51,10.00
2015,12,08,07,52,10.00
2015,12,08,07,53,10.00
2015,12,08,07,54,10.00
2015,12,08,07,55,10.00
2015,12,08,07,56,10.00
2015,12,08,07,57,10.00
2015,12,08,07,58,10.00
2015,12,08,07,59,10.00
2015,12,08,08,00,10.00
2015,12,08,08,01,10.00
2015,12,08,08,02,10.00
2015,12,08,08,03,10.00
2015,12,08,08,04,10.00
2015,12,08,08,05,10.00
2015,12,08,08,06,10.00
2015,12,08,08,07,10.00
2015,12,08,08,08,10.00
2015,12,08,08,09,10.00
2015,12,08,08,10,10.00
2015,12,08,08,11,10.10
2015,12,08,08,12,10.10
2015,12,08,08,13,10.10
2015,12,08,08,14,10.10
2015,12,08,08,15,10.10
2015,12,08,08,16,10.10
2015,12,08,08,17,10.10
2015,12,08,08,18,10.10
2015,12,08,08,19,10.10
2015,12,08,08,20,10.10
2015,12,08,08,21,10.10
2015,12,08,08,22,10.10
2015,12,08,08,23,10.10
2015,12,08,08,24,10.10
2015,12,08,08,25,10.10
2015,12,08,08,26,10.10
2015,12,08,08,27,10.10
2015,12,08,08,28,10.10
2015,12,08,08,29,10.10
2015,12,08,08,30,10.10
2015,12,08,08,31,10.20
2015,12,08,08,32,10.20
2015,12,08,08,33,10.20
2015,12,08,08,34,10.20
2015,12,08,08,35,10.20
2015,12,08,08,36,10.20
2015,12,08,08,37,10.20
2015,12,08,08,38,10.20
2015,12,08,08,39,10.20
2015,12,08,08,40,10.20
2015,12,08,08,41,10.20
2015,12,08,08,42,10.20
2015,12,08,08,43,10.20
2015,12,08,08,44,10.20
2015,12,08,08,45,10.20
2015,12,08,08,46,10.30
2015,12,08,08,47,10.30
2015,12,08,08,48,10.30
2015,12,08,08,49,10.30
2015,12,08,08,50,10.30
2015,12,08,08,51,10.30
2015,12,08,08,52,10.30
2015,12,08,08,53,10.30
2015,12,08,08,54,10.30
2015,12,08,08,55,10.30
2015,12,08,08,56,10.30
2015,12,08,08,57,10.30
2015,12,08,08,58,10.30
2015,12,08,08,59,10.30
2015,12,08,09,00,10.30
2015,12,08,09,01,10.30
2015,12,08,09,02,10.30
2015,12,08,09,03,10.30
2015,12,08,09,04,10.30
2015,12,08,09,05,10.30
2015,12,08,09,06,10.30
2015,12,08,09,07,10.30
2015,12,08,09,08,10.30
2015,12,08,09,09,10.30
2015,12,08,09,10,10.30
2015,12,08,09,11,10.20
2015,12,08,09,12,10.20
2015,12,08,09,13,10.20
2015,12,08,09,14,10.20
2015,12,08,09,15,10.20
2015,12,08,09,16,10.20
2015,12,08,09,17,10.20
2015,12,08,09,18,10.20
2015,12,08,09,19,10.20
2015,12,08,09,20,10.10
2015,12,08,09,21,10.10
2015,12,08,09,22,10.10
2015,12,08,09,23,10.10
2015,12,08,09,24,10.10
2015,12,08,09,25,10.10
2015,12,08,09,26,10.10
2015,12,08,09,27,10.10
2015,12,08,09,28,10.10
2015,12,08,09,29,10.10
2015,12,08,09,30,10.10
2015,12,08,09,31,10.10
2015,12,08,09,32,10.10
2015,12,08,09,33,10.10
2015,12,08,09,34,10.10
2015,12,08,09,35,10.10
2015,12,08,09,36,10.10
2015,12,08,09,37,10.10
2015,12,08,09,38,10.10
2015,12,08,09,39,10.10
2015,12,08,09,40,10.10
2015,12,08,09,41,10.10
2015,12,08,09,42,10.10
2015,12,08,09,43,10.10
2015,12,08,09,44,10.10
2015,12,08,09,45,10.10
2015,12,08,09,46,10.10
2015,12,08,09,47,10.10
2015,12,08,09,48,10.10
2015,12,08,09,49,10.20
2015,12,08,09,50,10.20
2015,12,08,09,51,10.20
2015,12,08,09,52,10.20
2015,12,08,09,53,10.20
2015,12,08,09,54,10.20
2015,12,08,09,55,10.20
2015,12,08,09,56,10.20
2015,12,08,09,57,10.20
2015,12,08,09,58,10.20
2015,12,08,09,59,10.20
2015,12,08,10,00,10.30
2015,12,08,10,01,10.30
2015,12,08,10,02,10.30
2015,12,08,10,03,10.30
2015,12,08,10,04,10.30
2015,12,08,10,05,10.30
2015,12,08,10,06,10.30
2015,12,08,10,07,10.30
2015,12,08,10,08,10.30
2015,12,08,10,09,10.30
2015,12,08,10,10,10.30
2015,12,08,10,11,10.30
2015,12,08,10,12,10.30
2015,12,08,10,13,10.30
2015,12,08,10,14,10.30
2015,12,08,10,15,10.30
2015,12,08,10,16,10.30
2015,12,08,10,17,10.30
2015,12,08,10,18,10.30
2015,12,08,10,19,10.30
2015,12,08,10,20,10.40
2015,12,08,10,21,10.40
2015,12,08,10,22,10.40
2015,12,08,10,23,10.40
2015,12,08,10,24,10.40
2015,12,08,10,25,10.40
2015,12,08,10,26,10.40
2015,12,08,10,27,10.40
2015,12,08,10,28,10.40
2015,12,08,10,29,10.40
2015,12,08,10,30,10.40
2015,12,08,10,31,10.40
2015,12,08,10,32,10.40
2015,12,08,10,33,10.40
2015,12,08,10,34,10.40
2015,12,08,10,35,10.40
2015,12,08,10,36,10.40
2015,12,08,10,37,10.40
2015,12,08,10,38,10.50
2015,12,08,10,39,10.50
2015,12,08,10,40,10.50
2015,12,08,10,41,10.50
2015,12,08,10,42,10.60
2015,12,08,10,43,10.60
2015,12,08,10,44,10.60
2015,12,08,10,45,10.60
2015,12,08,10,46,10.50
2015,12,08,10,47,10.50
2015,12,08,10,48,10.50
2015,12,08,10,49,10.50
2015,12,08,10,50,10.50
2015,12,08,10,51,10.50
2015,12,08,10,52,10.60
2015,12,08,10,53,10.60
2015,12,08,10,54,10.60
2015,12,08,10,55,10.60
2015,12,08,10,56,10.60
2015,12,08,10,57,10.60
2015,12,08,10,58,10.60
2015,12,08,10,59,10.60
2015,12,08,11,00,10.60
2015,12,08,11,01,10.60
2015,12,08,11,02,10.60
2015,12,08,11,03,10.60
2015,12,08,11,04,10.60
2015,12,08,11,05,10.60
2015,12,08,11,06,10.60
2015,12,08,11,07,10.60
2015,12,08,11,08,10.60
2015,12,08,11,09,10.70
2015,12,08,11,10,10.70
2015,12,08,11,11,10.70
2015,12,08,11,12,10.80
2015,12,08,11,13,10.80
2015,12,08,11,14,10.80
2015,12,08,11,15,10.80
2015,12,08,11,16,10.90
2015,12,08,11,17,10.90
2015,12,08,11,18,10.90
2015,12,08,11,19,10.90
2015,12,08,11,20,11.00
2015,12,08,11,21,11.00
2015,12,08,11,22,11.00
2015,12,08,11,23,11.00
2015,12,08,11,24,11.00
2015,12,08,11,25,11.10
2015,12,08,11,26,11.10
2015,12,08,11,27,11.10
2015,12,08,11,28,11.10
2015,12,08,11,29,11.10
2015,12,08,11,30,11.10
2015,12,08,11,31,11.10
2015,12,08,11,32,11.10
2015,12,08,11,33,11.10
2015,12,08,11,34,11.10
2015,12,08,11,35,11.10
2015,12,08,11,36,11.10
2015,12,08,11,37,11.10
2015,12,08,11,38,11.10
2015,12,08,11,39,11.10
2015,12,08,11,40,11.00
2015,12,08,11,41,11.00
2015,12,08,11,42,11.00
2015,12,08,11,43,11.00
2015,12,08,11,44,11.00
2015,12,08,11,45,11.00
2015,12,08,11,46,11.00
2015,12,08,11,47,11.00
2015,12,08,11,48,11.00
2015,12,08,11,49,10.90
2015,12,08,11,50,10.90
2015,12,08,11,51,10.90
2015,12,08,11,52,10.90
2015,12,08,11,53,10.90
2015,12,08,11,54,10.90
2015,12,08,11,55,10.90
2015,12,08,11,56,10.90
2015,12,08,11,57,10.90
2015,12,08,11,58,10.90
2015,12,08,11,59,11.00
2015,12,08,12,00,11.00
2015,12,08,12,01,11.00
2015,12,08,12,02,11.00
2015,12,08,12,03,11.00
2015,12,08,12,04,11.00
2015,12,08,12,05,11.00
2015,12,08,12,06,11.00
2015,12,08,12,07,11.00
2015,12,08,12,08,11.00
2015,12,08,12,09,11.00
2015,12,08,12,10,11.00
2015,12,08,12,11,11.00
2015,12,08,12,12,11.00
2015,12,08,12,13,10.90
2015,12,08,12,14,10.90
2015,12,08,12,15,10.90
2015,12,08,12,16,10.80
2015,12,08,12,17,10.80
2015,12,08,12,18,10.80
2015,12,08,12,19,10.80
2015,12,08,12,20,10.80
2015,12,08,12,21,10.80
2015,12,08,12,22,10.80
2015,12,08,12,23,10.80
2015,12,08,12,24,10.80
2015,12,08,12,25,10.80
2015,12,08,12,26,10.80
2015,12,08,12,27,10.80
2015,12,08,12,28,10.80
2015,12,08,12,29,10.80
2015,12,08,12,30,10.80
2015,12,08,12,31,10.80
2015,12,08,12,32,10.80
2015,12,08,12,33,10.70
2015,12,08,12,34,10.70
2015,12,08,12,35,10.70
2015,12,08,12,36,10.70
2015,12,08,12,37,10.70
2015,12,08,12,38,10.70
2015,12,08,12,39,10.70
2015,12,08,12,40,10.70
2015,12,08,12,41,10.80
2015,12,08,12,42,10.80
2015,12,08,12,43,10.80
2015,12,08,12,44,10.80
2015,12,08,12,45,10.70
2015,12,08,12,46,10.80
2015,12,08,12,47,10.80
2015,12,08,12,48,10.80
2015,12,08,12,49,10.80
2015,12,08,12,50,10.80
2015,12,08,12,51,10.80
2015,12,08,12,52,10.80
2015,12,08,12,53,10.80
2015,12,08,12,54,10.80
2015,12,08,12,55,10.80
2015,12,08,12,56,10.80
2015,12,08,12,57,10.80
2015,12,08,12,58,10.80
2015,12,08,12,59,10.80
2015,12,08,13,00,10.80
2015,12,08,13,01,10.80
2015,12,08,13,02,10.90
2015,12,08,13,03,10.90
2015,12,08,13,04,10.90
2015,12,08,13,05,10.90
2015,12,08,13,06,10.90
2015,12,08,13,07,10.90
2015,12,08,13,08,10.90
2015,12,08,13,09,10.90
2015,12,08,13,10,10.90
2015,12,08,13,11,10.90
2015,12,08,13,12,10.90
2015,12,08,13,13,10.90
2015,12,08,13,14,11.00
2015,12,08,13,15,11.00
2015,12,08,13,16,11.00
2015,12,08,13,17,11.00
2015,12,08,13,18,11.00
2015,12,08,13,19,11.00
2015,12,08,13,20,11.00
2015,12,08,13,21,11.00
2015,12,08,13,22,11.00
2015,12,08,13,23,11.10
2015,12,08,13,24,11.10
2015,12,08,13,25,11.10
2015,12,08,13,26,11.10
2015,12,08,13,27,11.10
2015,12,08,13,28,11.10
2015,12,08,13,29,11.10
2015,12,08,13,30,11.10
2015,12,08,13,31,11.10
2015,12,08,13,32,11.00
2015,12,08,13,33,11.00
2015,12,08,13,34,10.90
2015,12,08,13,35,10.90
2015,12,08,13,36,10.90
2015,12,08,13,37,10.80
2015,12,08,13,38,10.80
2015,12,08,13,39,10.80
2015,12,08,13,40,10.70
2015,12,08,13,41,10.70
2015,12,08,13,42,10.70
2015,12,08,13,43,10.60
2015,12,08,13,44,10.60
2015,12,08,13,45,10.60
2015,12,08,13,46,10.50
2015,12,08,13,47,10.50
2015,12,08,13,48,10.40
2015,12,08,13,49,10.40
2015,12,08,13,50,10.30
2015,12,08,13,51,10.30
2015,12,08,13,52,10.30
2015,12,08,13,53,10.30
2015,12,08,13,54,10.30
2015,12,08,13,55,10.30
2015,12,08,13,56,10.30
2015,12,08,13,57,10.30
2015,12,08,13,58,10.30
2015,12,08,13,59,10.30
2015,12,08,14,00,10.40
2015,12,08,14,01,10.40
2015,12,08,14,02,10.40
2015,12,08,14,03,10.40
2015,12,08,14,04,10.50
2015,12,08,14,05,10.50
2015,12,08,14,06,10.50
2015,12,08,14,07,10.60
2015,12,08,14,08,10.60
2015,12,08,14,09,10.60
2015,12,08,14,10,10.60
2015,12,08,14,11,10.70
2015,12,08,14,12,10.70
2015,12,08,14,13,10.70
2015,12,08,14,14,10.70
2015,12,08,14,15,10.70
2015,12,08,14,16,10.70
2015,12,08,14,17,10.70
2015,12,08,14,18,10.60
2015,12,08,14,19,10.60
2015,12,08,14,20,10.60
2015,12,08,14,21,10.50
2015,12,08,14,22,10.50
2015,12,08,14,23,10.50
2015,12,08,14,24,10.60
2015,12,08,14,25,10.50
2015,12,08,14,26,10.50
2015,12,08,14,27,10.50
2015,12,08,14,28,10.50
2015,12,08,14,29,10.40
2015,12,08,14,30,10.40
2015,12,08,14,31,10.30
2015,12,08,14,32,10.30
2015,12,08,14,33,10.30
2015,12,08,14,34,10.20
2015,12,08,14,35,10.20
2015,12,08,14,36,10.20
2015,12,08,14,37,10.20
2015,12,08,14,38,10.20
2015,12,08,14,39,10.10
2015,12,08,14,40,10.10
2015,12,08,14,41,10.00
2015,12,08,14,42,10.00
2015,12,08,14,43,9.90
2015,12,08,14,44,9.90
2015,12,08,14,45,9.80
2015,12,08,14,46,9.80
2015,12,08,14,47,9.80
2015,12,08,14,48,9.80
2015,12,08,14,49,9.80
2015,12,08,14,50,9.80
2015,12,08,14,51,9.80
2015,12,08,14,52,9.80
2015,12,08,14,53,9.80
2015,12,08,14,54,9.80
2015,12,08,14,55,9.90
2015,12,08,14,56,9.90
2015,12,08,14,57,9.90
2015,12,08,14,58,9.90
2015,12,08,14,59,9.90
2015,12,08,15,00,9.90
2015,12,08,15,01,10.00
2015,12,08,15,02,9.90
2015,12,08,15,03,9.90
2015,12,08,15,04,9.90
2015,12,08,15,05,9.90
2015,12,08,15,06,9.80
2015,12,08,15,07,9.80
2015,12,08,15,08,9.80
2015,12,08,15,09,9.80
2015,12,08,15,10,9.70
2015,12,08,15,11,9.70
2015,12,08,15,12,9.70
2015,12,08,15,13,9.70
2015,12,08,15,14,9.70
2015,12,08,15,15,9.70
2015,12,08,15,16,9.70
2015,12,08,15,17,9.70
2015,12,08,15,18,9.70
2015,12,08,15,19,9.70
2015,12,08,15,20,9.70
2015,12,08,15,21,9.70
2015,12,08,15,22,9.70
2015,12,08,15,23,9.70
2015,12,08,15,24,9.60
2015,12,08,15,25,9.60
2015,12,08,15,26,9.60
2015,12,08,15,27,9.60
2015,12,08,15,28,9.60
2015,12,08,15,29,9.60
2015,12,08,15,30,9.60
2015,12,08,15,31,9.60
2015,12,08,15,32,9.60
2015,12,08,15,33,9.60
2015,12,08,15,34,9.60
2015,12,08,15,35,9.60
2015,12,08,15,36,9.60
2015,12,08,15,37,9.50
2015,12,08,15,38,9.50
2015,12,08,15,39,9.40
2015,12,08,15,40,9.40
2015,12,08,15,41,9.40
2015,12,08,15,42,9.40
2015,12,08,15,43,9.40
2015,12,08,15,44,9.30
2015,12,08,15,45,9.30
2015,12,08,15,46,9.30
2015,12,08,15,47,9.30
2015,12,08,15,48,9.20
2015,12,08,15,49,9.20
2015,12,08,15,50,9.20
2015,12,08,15,51,9.20
2015,12,08,15,52,9.20
2015,12,08,15,53,9.20
2015,12,08,15,54,9.20
2015,12,08,15,55,9.20
2015,12,08,15,56,9.20
2015,12,08,15,57,9.20
2015,12,08,15,58,9.20
2015,12,08,15,59,9.20
2015,12,08,16,00,9.20
2015,12,08,16,01,9.20
2015,12,08,16,02,9.20
2015,12,08,16,03,9.20
2015,12,08,16,04,9.20
2015,12,08,16,05,9.20
2015,12,08,16,06,9.10
2015,12,08,16,07,9.10
2015,12,08,16,08,9.00
2015,12,08,16,09,9.00
2015,12,08,16,10,9.00
2015,12,08,16,11,9.00
2015,12,08,16,12,9.00
2015,12,08,16,13,8.90
2015,12,08,16,14,8.90
2015,12,08,16,15,8.90
2015,12,08,16,16,8.80
2015,12,08,16,17,8.80
2015,12,08,16,18,8.80
2015,12,08,16,19,8.70
2015,12,08,16,20,8.70
2015,12,08,16,21,8.70
2015,12,08,16,22,8.70
2015,12,08,16,23,8.70
2015,12,08,16,24,8.60
2015,12,08,16,25,8.60
2015,12,08,16,26,8.60
2015,12,08,16,27,8.50
2015,12,08,16,28,8.40
2015,12,08,16,29,8.40
2015,12,08,16,30,8.40
2015,12,08,16,31,8.40
2015,12,08,16,32,8.30
2015,12,08,16,33,8.30
2015,12,08,16,34,8.30
2015,12,08,16,35,8.30
2015,12,08,16,36,8.20
2015,12,08,16,37,8.20
2015,12,08,16,38,8.20
2015,12,08,16,39,8.20
2015,12,08,16,40,8.20
2015,12,08,16,41,8.10
2015,12,08,16,42,8.10
2015,12,08,16,43,8.10
2015,12,08,16,44,8.10
2015,12,08,16,45,8.10
2015,12,08,16,46,8.10
2015,12,08,16,47,8.10
2015,12,08,16,48,8.10
2015,12,08,16,49,8.10
2015,12,08,16,50,8.00
2015,12,08,16,51,8.00
2015,12,08,16,52,8.00
2015,12,08,16,53,7.90
2015,12,08,16,54,7.90
2015,12,08,16,55,7.90
2015,12,08,16,56,7.90
2015,12,08,16,57,7.90
2015,12,08,16,58,7.90
2015,12,08,16,59,7.80
2015,12,08,17,00,7.80
2015,12,08,17,01,7.70
2015,12,08,17,02,7.70
2015,12,08,17,03,7.70
2015,12,08,17,04,7.60
2015,12,08,17,05,7.60
2015,12,08,17,06,7.50
2015,12,08,17,07,7.50
2015,12,08,17,08,7.50
2015,12,08,17,09,7.50
2015,12,08,17,10,7.40
2015,12,08,17,11,7.50
2015,12,08,17,12,7.50
2015,12,08,17,13,7.40
2015,12,08,17,14,7.40
2015,12,08,17,15,7.40
2015,12,08,17,16,7.40
2015,12,08,17,17,7.40
2015,12,08,17,18,7.40
2015,12,08,17,19,7.40
2015,12,08,17,20,7.30
2015,12,08,17,21,7.30
2015,12,08,17,22,7.30
2015,12,08,17,23,7.30
2015,12,08,17,24,7.30
2015,12,08,17,25,7.30
2015,12,08,17,26,7.20
2015,12,08,17,27,7.20
2015,12,08,17,28,7.20
2015,12,08,17,29,7.20
2015,12,08,17,30,7.10
2015,12,08,17,31,7.10
2015,12,08,17,32,7.20
2015,12,08,17,33,7.20
2015,12,08,17,34,7.20
2015,12,08,17,35,7.20
2015,12,08,17,36,7.20
2015,12,08,17,37,7.20
2015,12,08,17,38,7.20
2015,12,08,17,39,7.20
2015,12,08,17,40,7.20
2015,12,08,17,41,7.20
2015,12,08,17,42,7.20
2015,12,08,17,43,7.20
2015,12,08,17,44,7.20
2015,12,08,17,45,7.10
2015,12,08,17,46,7.10
2015,12,08,17,47,7.00